Year,Month,Day,Hour,Minute,Value (Times are PST for temperature in C)
2018,10,17,00,00,8.60
2018,10,17,00,01,8.60
2018,10,17,00,02,8.60
2018,10,17,00,03,8.60
2018,10,17,00,04,8.60
2018,10,17,00,05,8.50
2018,10,17,00,06,8.50
2018,10,17,00,07,8.50
2018,10,17,00,08,8.50
2018,10,17,00,09,8.50
2018,10,17,00,10,8.50
2018,10,17,00,11,8.50
2018,10,17,00,12,8.60
2018,10,17,00,13,8.60
2018,10,17,00,14,8.60
2018,10,17,00,15,8.60
2018,10,17,00,16,8.60
2018,10,17,00,17,8.50
2018,10,17,00,18,8.50
2018,10,17,00,19,8.40
2018,10,17,00,20,8.40
2018,10,17,00,21,8.40
2018,10,17,00,22,8.40
2018,10,17,00,23,8.40
2018,10,17,00,24,8.40
2018,10,17,00,25,8.30
2018,10,17,00,26,8.30
2018,10,17,00,27,8.30
2018,10,17,00,28,8.30
2018,10,17,00,29,8.30
2018,10,17,00,30,8.30
2018,10,17,00,31,8.30
2018,10,17,00,32,8.20
2018,10,17,00,33,8.20
2018,10,17,00,34,8.20
2018,10,17,00,35,8.20
2018,10,17,00,36,8.20
2018,10,17,00,37,8.20
2018,10,17,00,38,8.20
2018,10,17,00,39,8.20
2018,10,17,00,40,8.20
2018,10,17,00,41,8.20
2018,10,17,00,42,8.20
2018,10,17,00,43,8.20
2018,10,17,00,44,8.20
2018,10,17,00,45,8.20
2018,10,17,00,46,8.20
2018,10,17,00,47,8.10
2018,10,17,00,48,8.10
2018,10,17,00,49,8.10
2018,10,17,00,50,8.10
2018,10,17,00,51,8.10
2018,10,17,00,52,8.10
2018,10,17,00,53,8.10
2018,10,17,00,54,8.10
2018,10,17,00,55,8.00
2018,10,17,00,56,8.00
2018,10,17,00,57,8.00
2018,10,17,00,58,8.00
2018,10,17,00,59,7.90
2018,10,17,01,00,7.90
2018,10,17,01,01,7.90
2018,10,17,01,02,7.90
2018,10,17,01,03,7.90
2018,10,17,01,04,7.80
2018,10,17,01,05,7.80
2018,10,17,01,06,7.80
2018,10,17,01,07,7.80
2018,10,17,01,08,7.80
2018,10,17,01,09,7.80
2018,10,17,01,10,7.80
2018,10,17,01,11,7.70
2018,10,17,01,12,7.70
2018,10,17,01,13,7.70
2018,10,17,01,14,7.70
2018,10,17,01,15,7.70
2018,10,17,01,16,7.70
2018,10,17,01,17,7.70
2018,10,17,01,18,7.70
2018,10,17,01,19,7.70
2018,10,17,01,20,7.70
2018,10,17,01,21,7.60
2018,10,17,01,22,7.60
2018,10,17,01,23,7.60
2018,10,17,01,24,7.60
2018,10,17,01,25,7.70
2018,10,17,01,26,7.70
2018,10,17,01,27,7.70
2018,10,17,01,28,7.70
2018,10,17,01,29,7.70
2018,10,17,01,30,7.70
2018,10,17,01,31,7.70
2018,10,17,01,32,7.70
2018,10,17,01,33,7.70
2018,10,17,01,34,7.70
2018,10,17,01,35,7.70
2018,10,17,01,36,7.70
2018,10,17,01,37,7.70
2018,10,17,01,38,7.70
2018,10,17,01,39,7.70
2018,10,17,01,40,7.70
2018,10,17,01,41,7.70
2018,10,17,01,42,7.70
2018,10,17,01,43,7.70
2018,10,17,01,44,7.70
2018,10,17,01,45,7.70
2018,10,17,01,46,7.70
2018,10,17,01,47,7.80
2018,10,17,01,48,7.80
2018,10,17,01,49,7.80
2018,10,17,01,50,7.80
2018,10,17,01,51,7.80
2018,10,17,01,52,7.80
2018,10,17,01,53,7.70
2018,10,17,01,54,7.70
2018,10,17,01,55,7.70
2018,10,17,01,56,7.70
2018,10,17,01,57,7.70
2018,10,17,01,58,7.70
2018,10,17,01,59,7.60
2018,10,17,02,00,7.60
2018,10,17,02,01,7.60
2018,10,17,02,02,7.60
2018,10,17,02,03,7.60
2018,10,17,02,04,7.60
2018,10,17,02,05,7.50
2018,10,17,02,06,7.50
2018,10,17,02,07,7.50
2018,10,17,02,08,7.40
2018,10,17,02,09,7.40
2018,10,17,02,10,7.40
2018,10,17,02,11,7.40
2018,10,17,02,12,7.40
2018,10,17,02,13,7.40
2018,10,17,02,14,7.30
2018,10,17,02,15,7.30
2018,10,17,02,16,7.30
2018,10,17,02,17,7.30
2018,10,17,02,18,7.30
2018,10,17,02,19,7.30
2018,10,17,02,20,7.30
2018,10,17,02,21,7.20
2018,10,17,02,22,7.20
2018,10,17,02,23,7.20
2018,10,17,02,24,7.20
2018,10,17,02,25,7.20
2018,10,17,02,26,7.20
2018,10,17,02,27,7.10
2018,10,17,02,28,7.10
2018,10,17,02,29,7.10
2018,10,17,02,30,7.10
2018,10,17,02,31,7.10
2018,10,17,02,32,7.10
2018,10,17,02,33,7.10
2018,10,17,02,34,7.10
2018,10,17,02,35,7.10
2018,10,17,02,36,7.10
2018,10,17,02,37,7.10
2018,10,17,02,38,7.10
2018,10,17,02,39,7.10
2018,10,17,02,40,7.00
2018,10,17,02,41,7.00
2018,10,17,02,42,7.00
2018,10,17,02,43,7.00
2018,10,17,02,44,6.90
2018,10,17,02,45,6.90
2018,10,17,02,46,6.90
2018,10,17,02,47,6.90
2018,10,17,02,48,6.90
2018,10,17,02,49,6.90
2018,10,17,02,50,6.90
2018,10,17,02,51,6.90
2018,10,17,02,52,6.90
2018,10,17,02,53,6.90
2018,10,17,02,54,6.80
2018,10,17,02,55,6.80
2018,10,17,02,56,6.80
2018,10,17,02,57,6.80
2018,10,17,02,58,6.80
2018,10,17,02,59,6.80
2018,10,17,03,00,6.80
2018,10,17,03,01,6.80
2018,10,17,03,02,6.80
2018,10,17,03,03,6.80
2018,10,17,03,04,6.80
2018,10,17,03,05,6.80
2018,10,17,03,06,6.80
2018,10,17,03,07,6.80
2018,10,17,03,08,6.70
2018,10,17,03,09,6.70
2018,10,17,03,10,6.70
2018,10,17,03,11,6.70
2018,10,17,03,12,6.70
2018,10,17,03,13,6.60
2018,10,17,03,14,6.60
2018,10,17,03,15,6.60
2018,10,17,03,16,6.60
2018,10,17,03,17,6.60
2018,10,17,03,18,6.60
2018,10,17,03,19,6.50
2018,10,17,03,20,6.50
2018,10,17,03,21,6.50
2018,10,17,03,22,6.40
2018,10,17,03,23,6.40
2018,10,17,03,24,6.40
2018,10,17,03,25,6.40
2018,10,17,03,26,6.40
2018,10,17,03,27,6.40
2018,10,17,03,28,6.40
2018,10,17,03,29,6.40
2018,10,17,03,30,6.40
2018,10,17,03,31,6.40
2018,10,17,03,32,6.40
2018,10,17,03,33,6.40
2018,10,17,03,34,6.40
2018,10,17,03,35,6.30
2018,10,17,03,36,6.30
2018,10,17,03,37,6.30
2018,10,17,03,38,6.30
2018,10,17,03,39,6.30
2018,10,17,03,40,6.30
2018,10,17,03,41,6.30
2018,10,17,03,42,6.30
2018,10,17,03,43,6.30
2018,10,17,03,44,6.30
2018,10,17,03,45,6.30
2018,10,17,03,46,6.30
2018,10,17,03,47,6.30
2018,10,17,03,48,6.30
2018,10,17,03,49,6.30
2018,10,17,03,50,6.30
2018,10,17,03,51,6.30
2018,10,17,03,52,6.30
2018,10,17,03,53,6.30
2018,10,17,03,54,6.30
2018,10,17,03,55,6.30
2018,10,17,03,56,6.30
2018,10,17,03,57,6.30
2018,10,17,03,58,6.30
2018,10,17,03,59,6.30
2018,10,17,04,00,6.30
2018,10,17,04,01,6.30
2018,10,17,04,02,6.30
2018,10,17,04,03,6.30
2018,10,17,04,04,6.30
2018,10,17,04,05,6.30
2018,10,17,04,06,6.30
2018,10,17,04,07,6.30
2018,10,17,04,08,6.30
2018,10,17,04,09,6.30
2018,10,17,04,10,6.30
2018,10,17,04,11,6.30
2018,10,17,04,12,6.30
2018,10,17,04,13,6.30
2018,10,17,04,14,6.30
2018,10,17,04,15,6.30
2018,10,17,04,16,6.30
2018,10,17,04,17,6.20
2018,10,17,04,18,6.20
2018,10,17,04,19,6.20
2018,10,17,04,20,6.20
2018,10,17,04,21,6.20
2018,10,17,04,22,6.20
2018,10,17,04,23,6.20
2018,10,17,04,24,6.20
2018,10,17,04,25,6.20
2018,10,17,04,26,6.20
2018,10,17,04,27,6.20
2018,10,17,04,28,6.10
2018,10,17,04,29,6.10
2018,10,17,04,30,6.10
2018,10,17,04,31,6.10
2018,10,17,04,32,6.10
2018,10,17,04,33,6.10
2018,10,17,04,34,6.10
2018,10,17,04,35,6.10
2018,10,17,04,36,6.10
2018,10,17,04,37,6.10
2018,10,17,04,38,6.10
2018,10,17,04,39,6.10
2018,10,17,04,40,6.10
2018,10,17,04,41,6.10
2018,10,17,04,42,6.10
2018,10,17,04,43,6.10
2018,10,17,04,44,6.10
2018,10,17,04,45,6.10
2018,10,17,04,46,6.10
2018,10,17,04,47,6.10
2018,10,17,04,48,6.10
2018,10,17,04,49,6.10
2018,10,17,04,50,6.10
2018,10,17,04,51,6.10
2018,10,17,04,52,6.10
2018,10,17,04,53,6.10
2018,10,17,04,54,6.10
2018,10,17,04,55,6.10
2018,10,17,04,56,6.10
2018,10,17,04,57,6.20
2018,10,17,04,58,6.20
2018,10,17,04,59,6.20
2018,10,17,05,00,6.20
2018,10,17,05,01,6.20
2018,10,17,05,02,6.10
2018,10,17,05,03,6.10
2018,10,17,05,04,6.10
2018,10,17,05,05,6.10
2018,10,17,05,06,6.10
2018,10,17,05,07,6.10
2018,10,17,05,08,6.10
2018,10,17,05,09,6.10
2018,10,17,05,10,6.10
2018,10,17,05,11,6.10
2018,10,17,05,12,6.10
2018,10,17,05,13,6.10
2018,10,17,05,14,6.10
2018,10,17,05,15,6.10
2018,10,17,05,16,6.10
2018,10,17,05,17,6.00
2018,10,17,05,18,6.00
2018,10,17,05,19,6.00
2018,10,17,05,20,6.00
2018,10,17,05,21,6.00
2018,10,17,05,22,6.00
2018,10,17,05,23,6.00
2018,10,17,05,24,5.90
2018,10,17,05,25,5.90
2018,10,17,05,26,6.00
2018,10,17,05,27,5.90
2018,10,17,05,28,6.00
2018,10,17,05,29,5.90
2018,10,17,05,30,6.00
2018,10,17,05,31,6.00
2018,10,17,05,32,6.00
2018,10,17,05,33,6.00
2018,10,17,05,34,6.10
2018,10,17,05,35,6.10
2018,10,17,05,36,6.10
2018,10,17,05,37,6.10
2018,10,17,05,38,6.10
2018,10,17,05,39,6.10
2018,10,17,05,40,6.10
2018,10,17,05,41,6.20
2018,10,17,05,42,6.20
2018,10,17,05,43,6.20
2018,10,17,05,44,6.20
2018,10,17,05,45,6.20
2018,10,17,05,46,6.20
2018,10,17,05,47,6.30
2018,10,17,05,48,6.30
2018,10,17,05,49,6.30
2018,10,17,05,50,6.30
2018,10,17,05,51,6.30
2018,10,17,05,52,6.30
2018,10,17,05,53,6.30
2018,10,17,05,54,6.30
2018,10,17,05,55,6.30
2018,10,17,05,56,6.30
2018,10,17,05,57,6.30
2018,10,17,05,58,6.30
2018,10,17,05,59,6.30
2018,10,17,06,00,6.30
2018,10,17,06,01,6.30
2018,10,17,06,02,6.30
2018,10,17,06,03,6.30
2018,10,17,06,04,6.30
2018,10,17,06,05,6.30
2018,10,17,06,06,6.30
2018,10,17,06,07,6.30
2018,10,17,06,08,6.30
2018,10,17,06,09,6.30
2018,10,17,06,10,6.30
2018,10,17,06,11,6.30
2018,10,17,06,12,6.30
2018,10,17,06,13,6.30
2018,10,17,06,14,6.30
2018,10,17,06,15,6.30
2018,10,17,06,16,6.30
2018,10,17,06,17,6.30
2018,10,17,06,18,6.30
2018,10,17,06,19,6.30
2018,10,17,06,20,6.30
2018,10,17,06,21,6.30
2018,10,17,06,22,6.30
2018,10,17,06,23,6.30
2018,10,17,06,24,6.30
2018,10,17,06,25,6.30
2018,10,17,06,26,6.30
2018,10,17,06,27,6.30
2018,10,17,06,28,6.30
2018,10,17,06,29,6.30
2018,10,17,06,30,6.30
2018,10,17,06,31,6.30
2018,10,17,06,32,6.30
2018,10,17,06,33,6.30
2018,10,17,06,34,6.30
2018,10,17,06,35,6.30
2018,10,17,06,36,6.30
2018,10,17,06,37,6.30
2018,10,17,06,38,6.30
2018,10,17,06,39,6.30
2018,10,17,06,40,6.30
2018,10,17,06,41,6.30
2018,10,17,06,42,6.20
2018,10,17,06,43,6.20
2018,10,17,06,44,6.20
2018,10,17,06,45,6.20
2018,10,17,06,46,6.20
2018,10,17,06,47,6.20
2018,10,17,06,48,6.20
2018,10,17,06,49,6.20
2018,10,17,06,50,6.20
2018,10,17,06,51,6.20
2018,10,17,06,52,6.20
2018,10,17,06,53,6.20
2018,10,17,06,54,6.20
2018,10,17,06,55,6.20
2018,10,17,06,56,6.20
2018,10,17,06,57,6.20
2018,10,17,06,58,6.20
2018,10,17,06,59,6.20
2018,10,17,07,00,6.20
2018,10,17,07,01,6.20
2018,10,17,07,02,6.20
2018,10,17,07,03,6.20
2018,10,17,07,04,6.20
2018,10,17,07,05,6.20
2018,10,17,07,06,6.20
2018,10,17,07,07,6.20
2018,10,17,07,08,6.20
2018,10,17,07,09,6.20
2018,10,17,07,10,6.20
2018,10,17,07,11,6.20
2018,10,17,07,12,6.20
2018,10,17,07,13,6.20
2018,10,17,07,14,6.20
2018,10,17,07,15,6.20
2018,10,17,07,16,6.10
2018,10,17,07,17,6.10
2018,10,17,07,18,6.10
2018,10,17,07,19,6.10
2018,10,17,07,20,6.10
2018,10,17,07,21,6.10
2018,10,17,07,22,6.10
2018,10,17,07,23,6.00
2018,10,17,07,24,6.00
2018,10,17,07,25,6.00
2018,10,17,07,26,6.00
2018,10,17,07,27,6.00
2018,10,17,07,28,5.90
2018,10,17,07,29,5.90
2018,10,17,07,30,5.90
2018,10,17,07,31,5.90
2018,10,17,07,32,5.90
2018,10,17,07,33,5.90
2018,10,17,07,34,5.90
2018,10,17,07,35,5.90
2018,10,17,07,36,5.90
2018,10,17,07,37,5.90
2018,10,17,07,38,5.90
2018,10,17,07,39,5.90
2018,10,17,07,40,5.90
2018,10,17,07,41,5.80
2018,10,17,07,42,5.80
2018,10,17,07,43,5.80
2018,10,17,07,44,5.80
2018,10,17,07,45,5.80
2018,10,17,07,46,5.80
2018,10,17,07,47,5.80
2018,10,17,07,48,5.80
2018,10,17,07,49,5.80
2018,10,17,07,50,5.80
2018,10,17,07,51,5.80
2018,10,17,07,52,5.80
2018,10,17,07,53,5.80
2018,10,17,07,54,5.70
2018,10,17,07,55,5.70
2018,10,17,07,56,5.70
2018,10,17,07,57,5.70
2018,10,17,07,58,5.60
2018,10,17,07,59,5.60
2018,10,17,08,00,5.60
2018,10,17,08,01,5.60
2018,10,17,08,02,5.60
2018,10,17,08,03,5.60
2018,10,17,08,04,5.60
2018,10,17,08,05,5.60
2018,10,17,08,06,5.60
2018,10,17,08,07,5.60
2018,10,17,08,08,5.70
2018,10,17,08,09,5.70
2018,10,17,08,10,5.70
2018,10,17,08,11,5.70
2018,10,17,08,12,5.70
2018,10,17,08,13,5.80
2018,10,17,08,14,5.80
2018,10,17,08,15,5.80
2018,10,17,08,16,5.80
2018,10,17,08,17,5.80
2018,10,17,08,18,5.80
2018,10,17,08,19,5.80
2018,10,17,08,20,5.80
2018,10,17,08,21,5.80
2018,10,17,08,22,5.80
2018,10,17,08,23,5.80
2018,10,17,08,24,5.80
2018,10,17,08,25,5.90
2018,10,17,08,26,5.90
2018,10,17,08,27,5.90
2018,10,17,08,28,5.90
2018,10,17,08,29,5.90
2018,10,17,08,30,5.90
2018,10,17,08,31,5.90
2018,10,17,08,32,6.00
2018,10,17,08,33,6.00
2018,10,17,08,34,6.10
2018,10,17,08,35,6.10
2018,10,17,08,36,6.10
2018,10,17,08,37,6.10
2018,10,17,08,38,6.10
2018,10,17,08,39,6.10
2018,10,17,08,40,6.10
2018,10,17,08,41,6.10
2018,10,17,08,42,6.10
2018,10,17,08,43,6.10
2018,10,17,08,44,6.10
2018,10,17,08,45,6.10
2018,10,17,08,46,6.10
2018,10,17,08,47,6.10
2018,10,17,08,48,6.10
2018,10,17,08,49,6.10
2018,10,17,08,50,6.10
2018,10,17,08,51,6.10
2018,10,17,08,52,6.10
2018,10,17,08,53,6.10
2018,10,17,08,54,6.10
2018,10,17,08,55,6.10
2018,10,17,08,56,6.10
2018,10,17,08,57,6.10
2018,10,17,08,58,6.10
2018,10,17,08,59,6.10
2018,10,17,09,00,6.10
2018,10,17,09,01,6.10
2018,10,17,09,02,6.10
2018,10,17,09,03,6.10
2018,10,17,09,04,6.10
2018,10,17,09,05,6.10
2018,10,17,09,06,6.10
2018,10,17,09,07,6.10
2018,10,17,09,08,6.20
2018,10,17,09,09,6.20
2018,10,17,09,10,6.20
2018,10,17,09,11,6.20
2018,10,17,09,12,6.20
2018,10,17,09,13,6.20
2018,10,17,09,14,6.20
2018,10,17,09,15,6.20
2018,10,17,09,16,6.20
2018,10,17,09,17,6.30
2018,10,17,09,18,6.30
2018,10,17,09,19,6.30
2018,10,17,09,20,6.30
2018,10,17,09,21,6.30
2018,10,17,09,22,6.30
2018,10,17,09,23,6.30
2018,10,17,09,24,6.30
2018,10,17,09,25,6.30
2018,10,17,09,26,6.30
2018,10,17,09,27,6.30
2018,10,17,09,28,6.30
2018,10,17,09,29,6.30
2018,10,17,09,30,6.40
2018,10,17,09,31,6.40
2018,10,17,09,32,6.40
2018,10,17,09,33,6.30
2018,10,17,09,34,6.40
2018,10,17,09,35,6.30
2018,10,17,09,36,6.30
2018,10,17,09,37,6.30
2018,10,17,09,38,6.40
2018,10,17,09,39,6.40
2018,10,17,09,40,6.40
2018,10,17,09,41,6.40
2018,10,17,09,42,6.40
2018,10,17,09,43,6.40
2018,10,17,09,44,6.40
2018,10,17,09,45,6.40
2018,10,17,09,46,6.50
2018,10,17,09,47,6.50
2018,10,17,09,48,6.50
2018,10,17,09,49,6.50
2018,10,17,09,50,6.60
2018,10,17,09,51,6.60
2018,10,17,09,52,6.60
2018,10,17,09,53,6.60
2018,10,17,09,54,6.60
2018,10,17,09,55,6.60
2018,10,17,09,56,6.60
2018,10,17,09,57,6.60
2018,10,17,09,58,6.70
2018,10,17,09,59,6.70
2018,10,17,10,00,6.70
2018,10,17,10,01,6.70
2018,10,17,10,02,6.70
2018,10,17,10,03,6.70
2018,10,17,10,04,6.70
2018,10,17,10,05,6.70
2018,10,17,10,06,6.70
2018,10,17,10,07,6.70
2018,10,17,10,08,6.70
2018,10,17,10,09,6.70
2018,10,17,10,10,6.70
2018,10,17,10,11,6.80
2018,10,17,10,12,6.80
2018,10,17,10,13,6.80
2018,10,17,10,14,6.80
2018,10,17,10,15,6.90
2018,10,17,10,16,6.90
2018,10,17,10,17,7.00
2018,10,17,10,18,7.10
2018,10,17,10,19,7.10
2018,10,17,10,20,7.20
2018,10,17,10,21,7.20
2018,10,17,10,22,7.10
2018,10,17,10,23,7.20
2018,10,17,10,24,7.20
2018,10,17,10,25,7.20
2018,10,17,10,26,7.20
2018,10,17,10,27,7.20
2018,10,17,10,28,7.20
2018,10,17,10,29,7.20
2018,10,17,10,30,7.30
2018,10,17,10,31,7.20
2018,10,17,10,32,7.20
2018,10,17,10,33,7.30
2018,10,17,10,34,7.30
2018,10,17,10,35,7.30
2018,10,17,10,36,7.30
2018,10,17,10,37,7.30
2018,10,17,10,38,7.40
2018,10,17,10,39,7.40
2018,10,17,10,40,7.40
2018,10,17,10,41,7.40
2018,10,17,10,42,7.60
2018,10,17,10,43,7.60
2018,10,17,10,44,7.70
2018,10,17,10,45,7.80
2018,10,17,10,46,7.80
2018,10,17,10,47,7.80
2018,10,17,10,48,7.80
2018,10,17,10,49,7.90
2018,10,17,10,50,7.90
2018,10,17,10,51,7.90
2018,10,17,10,52,8.00
2018,10,17,10,53,8.10
2018,10,17,10,54,8.10
2018,10,17,10,55,8.20
2018,10,17,10,56,8.20
2018,10,17,10,57,8.20
2018,10,17,10,58,8.20
2018,10,17,10,59,8.20
2018,10,17,11,00,8.30
2018,10,17,11,01,8.30
2018,10,17,11,02,8.30
2018,10,17,11,03,8.30
2018,10,17,11,04,8.30
2018,10,17,11,05,8.30
2018,10,17,11,06,8.30
2018,10,17,11,07,8.30
2018,10,17,11,08,8.30
2018,10,17,11,09,8.30
2018,10,17,11,10,8.30
2018,10,17,11,11,8.40
2018,10,17,11,12,8.40
2018,10,17,11,13,8.40
2018,10,17,11,14,8.50
2018,10,17,11,15,8.50
2018,10,17,11,16,8.50
2018,10,17,11,17,8.60
2018,10,17,11,18,8.60
2018,10,17,11,19,8.60
2018,10,17,11,20,8.70
2018,10,17,11,21,8.70
2018,10,17,11,22,8.80
2018,10,17,11,23,8.80
2018,10,17,11,24,8.90
2018,10,17,11,25,8.90
2018,10,17,11,26,9.00
2018,10,17,11,27,9.10
2018,10,17,11,28,9.10
2018,10,17,11,29,9.20
2018,10,17,11,30,9.20
2018,10,17,11,31,9.30
2018,10,17,11,32,9.30
2018,10,17,11,33,9.30
2018,10,17,11,34,9.30
2018,10,17,11,35,9.40
2018,10,17,11,36,9.40
2018,10,17,11,37,9.50
2018,10,17,11,38,9.60
2018,10,17,11,39,9.70
2018,10,17,11,40,9.80
2018,10,17,11,41,9.80
2018,10,17,11,42,9.90
2018,10,17,11,43,9.90
2018,10,17,11,44,10.00
2018,10,17,11,45,10.10
2018,10,17,11,46,10.20
2018,10,17,11,47,10.30
2018,10,17,11,48,10.40
2018,10,17,11,49,10.50
2018,10,17,11,50,10.60
2018,10,17,11,51,10.60
2018,10,17,11,52,10.70
2018,10,17,11,53,10.80
2018,10,17,11,54,10.90
2018,10,17,11,55,10.90
2018,10,17,11,56,11.00
2018,10,17,11,57,11.10
2018,10,17,11,58,11.10
2018,10,17,11,59,11.10
2018,10,17,12,00,11.10
2018,10,17,12,01,11.10
2018,10,17,12,02,11.10
2018,10,17,12,03,11.10
2018,10,17,12,04,11.10
2018,10,17,12,05,11.20
2018,10,17,12,06,11.20
2018,10,17,12,07,11.30
2018,10,17,12,08,11.30
2018,10,17,12,09,11.30
2018,10,17,12,10,11.40
2018,10,17,12,11,11.40
2018,10,17,12,12,11.60
2018,10,17,12,13,11.60
2018,10,17,12,14,11.70
2018,10,17,12,15,11.80
2018,10,17,12,16,11.80
2018,10,17,12,17,11.90
2018,10,17,12,18,11.90
2018,10,17,12,19,12.00
2018,10,17,12,20,12.10
2018,10,17,12,21,12.20
2018,10,17,12,22,12.20
2018,10,17,12,23,12.30
2018,10,17,12,24,12.30
2018,10,17,12,25,12.40
2018,10,17,12,26,12.40
2018,10,17,12,27,12.60
2018,10,17,12,28,12.70
2018,10,17,12,29,12.80
2018,10,17,12,30,12.80
2018,10,17,12,31,12.90
2018,10,17,12,32,12.90
2018,10,17,12,33,13.00
2018,10,17,12,34,13.10
2018,10,17,12,35,13.20
2018,10,17,12,36,13.20
2018,10,17,12,37,13.20
2018,10,17,12,38,13.30
2018,10,17,12,39,13.40
2018,10,17,12,40,13.40
2018,10,17,12,41,13.50
2018,10,17,12,42,13.60
2018,10,17,12,43,13.60
2018,10,17,12,44,13.60
2018,10,17,12,45,13.50
2018,10,17,12,46,13.50
2018,10,17,12,47,13.60
2018,10,17,12,48,13.60
2018,10,17,12,49,13.70
2018,10,17,12,50,13.70
2018,10,17,12,51,13.70
2018,10,17,12,52,13.70
2018,10,17,12,53,13.70
2018,10,17,12,54,13.70
2018,10,17,12,55,13.80
2018,10,17,12,56,13.80
2018,10,17,12,57,13.90
2018,10,17,12,58,14.00
2018,10,17,12,59,14.10
2018,10,17,13,00,14.20
2018,10,17,13,01,14.20
2018,10,17,13,02,14.30
2018,10,17,13,03,14.30
2018,10,17,13,04,14.40
2018,10,17,13,05,14.60
2018,10,17,13,06,14.70
2018,10,17,13,07,14.80
2018,10,17,13,08,14.90
2018,10,17,13,09,15.10
2018,10,17,13,10,15.20
2018,10,17,13,11,15.30
2018,10,17,13,12,15.40
2018,10,17,13,13,15.50
2018,10,17,13,14,15.60
2018,10,17,13,15,15.70
2018,10,17,13,16,15.80
2018,10,17,13,17,15.80
2018,10,17,13,18,15.90
2018,10,17,13,19,16.00
2018,10,17,13,20,16.10
2018,10,17,13,21,16.20
2018,10,17,13,22,16.30
2018,10,17,13,23,16.40
2018,10,17,13,24,16.40
2018,10,17,13,25,16.50
2018,10,17,13,26,16.60
2018,10,17,13,27,16.60
2018,10,17,13,28,16.70
2018,10,17,13,29,16.70
2018,10,17,13,30,16.70
2018,10,17,13,31,16.70
2018,10,17,13,32,16.70
2018,10,17,13,33,16.70
2018,10,17,13,34,16.70
2018,10,17,13,35,16.80
2018,10,17,13,36,16.80
2018,10,17,13,37,16.90
2018,10,17,13,38,16.90
2018,10,17,13,39,17.10
2018,10,17,13,40,17.10
2018,10,17,13,41,17.20
2018,10,17,13,42,17.20
2018,10,17,13,43,17.30
2018,10,17,13,44,17.30
2018,10,17,13,45,17.30
2018,10,17,13,46,17.30
2018,10,17,13,47,17.30
2018,10,17,13,48,17.40
2018,10,17,13,49,17.40
2018,10,17,13,50,17.40
2018,10,17,13,51,17.40
2018,10,17,13,52,17.40
2018,10,17,13,53,17.40
2018,10,17,13,54,17.60
2018,10,17,13,55,17.60
2018,10,17,13,56,17.70
2018,10,17,13,57,17.70
2018,10,17,13,58,17.80
2018,10,17,13,59,17.80
2018,10,17,14,00,17.70
2018,10,17,14,01,17.70
2018,10,17,14,02,17.70
2018,10,17,14,03,17.80
2018,10,17,14,04,17.80
2018,10,17,14,05,17.80
2018,10,17,14,06,17.80
2018,10,17,14,07,17.90
2018,10,17,14,08,17.90
2018,10,17,14,09,17.90
2018,10,17,14,10,18.00
2018,10,17,14,11,18.00
2018,10,17,14,12,18.00
2018,10,17,14,13,18.00
2018,10,17,14,14,18.00
2018,10,17,14,15,18.00
2018,10,17,14,16,18.10
2018,10,17,14,17,18.10
2018,10,17,14,18,18.20
2018,10,17,14,19,18.20
2018,10,17,14,20,18.20
2018,10,17,14,21,18.30
2018,10,17,14,22,18.30
2018,10,17,14,23,18.40
2018,10,17,14,24,18.40
2018,10,17,14,25,18.50
2018,10,17,14,26,18.60
2018,10,17,14,27,18.60
2018,10,17,14,28,18.70
2018,10,17,14,29,18.70
2018,10,17,14,30,18.80
2018,10,17,14,31,18.80
2018,10,17,14,32,18.80
2018,10,17,14,33,18.80
2018,10,17,14,34,18.80
2018,10,17,14,35,18.90
2018,10,17,14,36,18.90
2018,10,17,14,37,18.90
2018,10,17,14,38,19.00
2018,10,17,14,39,19.00
2018,10,17,14,40,19.10
2018,10,17,14,41,19.10
2018,10,17,14,42,19.10
2018,10,17,14,43,19.10
2018,10,17,14,44,19.10
2018,10,17,14,45,19.20
2018,10,17,14,46,19.10
2018,10,17,14,47,19.10
2018,10,17,14,48,19.10
2018,10,17,14,49,19.20
2018,10,17,14,50,19.20
2018,10,17,14,51,19.20
2018,10,17,14,52,19.20
2018,10,17,14,53,19.30
2018,10,17,14,54,19.30
2018,10,17,14,55,19.30
2018,10,17,14,56,19.30
2018,10,17,14,57,19.30
2018,10,17,14,58,19.30
2018,10,17,14,59,19.20
2018,10,17,15,00,19.10
2018,10,17,15,01,19.10
2018,10,17,15,02,19.10
2018,10,17,15,03,19.10
2018,10,17,15,04,19.10
2018,10,17,15,05,19.10
2018,10,17,15,06,19.10
2018,10,17,15,07,19.10
2018,10,17,15,08,19.20
2018,10,17,15,09,19.20
2018,10,17,15,10,19.30
2018,10,17,15,11,19.40
2018,10,17,15,12,19.50
2018,10,17,15,13,19.60
2018,10,17,15,14,19.60
2018,10,17,15,15,19.70
2018,10,17,15,16,19.80
2018,10,17,15,17,19.90
2018,10,17,15,18,19.90
2018,10,17,15,19,20.00
2018,10,17,15,20,20.10
2018,10,17,15,21,20.10
2018,10,17,15,22,20.20
2018,10,17,15,23,20.20
2018,10,17,15,24,20.30
2018,10,17,15,25,20.30
2018,10,17,15,26,20.30
2018,10,17,15,27,20.30
2018,10,17,15,28,20.30
2018,10,17,15,29,20.30
2018,10,17,15,30,20.40
2018,10,17,15,31,20.40
2018,10,17,15,32,20.40
2018,10,17,15,33,20.30
2018,10,17,15,34,20.30
2018,10,17,15,35,20.40
2018,10,17,15,36,20.40
2018,10,17,15,37,20.60
2018,10,17,15,38,20.60
2018,10,17,15,39,20.70
2018,10,17,15,40,20.80
2018,10,17,15,41,20.80
2018,10,17,15,42,20.90
2018,10,17,15,43,21.00
2018,10,17,15,44,21.10
2018,10,17,15,45,21.20
2018,10,17,15,46,21.20
2018,10,17,15,47,21.20
2018,10,17,15,48,21.30
2018,10,17,15,49,21.30
2018,10,17,15,50,21.30
2018,10,17,15,51,21.30
2018,10,17,15,52,21.30
2018,10,17,15,53,21.30
2018,10,17,15,54,21.30
2018,10,17,15,55,21.40
2018,10,17,15,56,21.40
2018,10,17,15,57,21.40
2018,10,17,15,58,21.40
2018,10,17,15,59,21.40
2018,10,17,16,00,21.40
2018,10,17,16,01,21.40
2018,10,17,16,02,21.30
2018,10,17,16,03,21.30
2018,10,17,16,04,21.30
2018,10,17,16,05,21.20
2018,10,17,16,06,21.20
2018,10,17,16,07,21.10
2018,10,17,16,08,21.00
2018,10,17,16,09,20.90
2018,10,17,16,10,20.80
2018,10,17,16,11,20.80
2018,10,17,16,12,20.80
2018,10,17,16,13,20.80
2018,10,17,16,14,20.80
2018,10,17,16,15,20.80
2018,10,17,16,16,20.80
2018,10,17,16,17,20.80
2018,10,17,16,18,20.80
2018,10,17,16,19,20.80
2018,10,17,16,20,20.70
2018,10,17,16,21,20.70
2018,10,17,16,22,20.60
2018,10,17,16,23,20.60
2018,10,17,16,24,20.60
2018,10,17,16,25,20.60
2018,10,17,16,26,20.70
2018,10,17,16,27,20.60
2018,10,17,16,28,20.60
2018,10,17,16,29,20.50
2018,10,17,16,30,20.50
2018,10,17,16,31,20.40
2018,10,17,16,32,20.40
2018,10,17,16,33,20.30
2018,10,17,16,34,20.30
2018,10,17,16,35,20.20
2018,10,17,16,36,20.20
2018,10,17,16,37,20.20
2018,10,17,16,38,20.10
2018,10,17,16,39,20.10
2018,10,17,16,40,20.10
2018,10,17,16,41,20.10
2018,10,17,16,42,20.00
2018,10,17,16,43,19.90
2018,10,17,16,44,19.90
2018,10,17,16,45,19.80
2018,10,17,16,46,19.80
2018,10,17,16,47,19.70
2018,10,17,16,48,19.60
2018,10,17,16,49,19.40
2018,10,17,16,50,19.30
2018,10,17,16,51,19.20
2018,10,17,16,52,19.10
2018,10,17,16,53,18.90
2018,10,17,16,54,18.80
2018,10,17,16,55,18.70
2018,10,17,16,56,18.70
2018,10,17,16,57,18.60
2018,10,17,16,58,18.40
2018,10,17,16,59,18.40
2018,10,17,17,00,18.30
2018,10,17,17,01,18.20
2018,10,17,17,02,18.10
2018,10,17,17,03,18.00
2018,10,17,17,04,17.90
2018,10,17,17,05,17.80
2018,10,17,17,06,17.70
2018,10,17,17,07,17.70
2018,10,17,17,08,17.60
2018,10,17,17,09,17.60
2018,10,17,17,10,17.50
2018,10,17,17,11,17.40
2018,10,17,17,12,17.40
2018,10,17,17,13,17.40
2018,10,17,17,14,17.30
2018,10,17,17,15,17.30
2018,10,17,17,16,17.30
2018,10,17,17,17,17.30
2018,10,17,17,18,17.30
2018,10,17,17,19,17.30
2018,10,17,17,20,17.30
2018,10,17,17,21,17.30
2018,10,17,17,22,17.30
2018,10,17,17,23,17.30
2018,10,17,17,24,17.20
2018,10,17,17,25,17.20
2018,10,17,17,26,17.10
2018,10,17,17,27,17.10
2018,10,17,17,28,17.00
2018,10,17,17,29,17.00
2018,10,17,17,30,16.90
2018,10,17,17,31,16.90
2018,10,17,17,32,16.90
2018,10,17,17,33,16.80
2018,10,17,17,34,16.80
2018,10,17,17,35,16.80
2018,10,17,17,36,16.80
2018,10,17,17,37,16.80
2018,10,17,17,38,16.70
2018,10,17,17,39,16.70
2018,10,17,17,40,16.70
2018,10,17,17,41,16.60
2018,10,17,17,42,16.60
2018,10,17,17,43,16.60
2018,10,17,17,44,16.50
2018,10,17,17,45,16.50
2018,10,17,17,46,16.40
2018,10,17,17,47,16.40
2018,10,17,17,48,16.30
2018,10,17,17,49,16.30
2018,10,17,17,50,16.20